Location: Mount Cross
(36.6390°N, 79.4878°W)
Time: 19:28:57
(UTC+00:00)

Courier 1B Rocket - Pass Details

Date: 29 March 2023
Orbit: 920 x 1202 km, 28.2° (Epoch: 05 June)

Event Time Altitude Azimuth Distance (km) Brightness Sun altitude
Rises 01:44:34 0° 255° (WSW) 3,893 8.9 -25.5°
Reaches altitude 10° 01:47:32 10° 248° (WSW) 2,891 8.0 -26.0°
Enters shadow 01:53:56 42° 183° (S) 1,419 5.6 -27.2°
Maximum altitude 01:54:04 42° 180° (S) 1,417 - -27.2°
Drops below altitude 10° 02:00:10 10° 112° (ESE) 2,705 - -28.3°
Sets 02:02:52 0° 105° (ESE) 3,619 - -28.8°
